Location: Dion R Holm Powerhouse
(37.8966°N, 119.9688°W)
Time: 23:18:20
(UTC+00:00)

Cosmos 1515 - Pass Details

Date: 17 September 2024
Orbit: 430 x 435 km, 82.5° (Epoch: 06 October)

Event Time Altitude Azimuth Distance (km) Brightness Sun altitude
Exits shadow 12:58:12 13° 242° (WSW) 1,351 5.2 -9.8°
Maximum altitude 13:00:07 20° 284° (WNW) 1,066 4.7 -9.4°
Drops below altitude 10° 13:02:38 10° 333° (NNW) 1,535 5.9 -8.9°
Sets 13:05:05 0° 351° (N) 2,408 7.1 -8.5°
